User: anonymous   Login
Location: Caltech
(34.1382°N, 118.1253°W)
Time: 11:17:52
(UTC-08:00)
Language:

PANSAT - Orbit

View from above orbital plane
View from above orbital plane
View from above satellite
View from above satellite

Ground track
Ground track

The orbit data is extracted from the following two-line orbital elements,

1 25520U 98064B   17018.94802253 +.00000961 +00000-0 +26168-4 0  9994
2 25520 028.4567 280.6663 0005392 147.5314 212.5613 15.28147430011123
Epoch (UTC): 18 January 2017 22:45:09
Eccentricity: 0.0005392
inclination: 28.4567°
perigee height: 477 km
apogee height: 485 km
right ascension of ascending node: 280.6663°
argument of perigee: 147.5314°
revolutions per day: 15.28147430
mean anomaly at epoch: 212.5613°
orbit number at epoch: 1112

The dashed part of the orbit path shows where the satellite is in the earth's shadow,  

DLR